| time (UTC) | temp F | wind direction | speed knots | gust knots | rain 1hr in | rain 24hr in | rain mn in | humidity % | barometer mb |
| 20260507122017 | 49 | 293 | 3.5 | 6.1 | 0.02 | 0.06 | 0.06 | 93 | 1015.1 |
| 20260507121017 | 49 | 270 | 5.2 | 8.7 | 0.02 | 0.06 | 0.06 | 93 | 1014.8 |
| 20260507120017 | 49 | 293 | 4.3 | 11.3 | 0.02 | 0.06 | 0.06 | 93 | 1014.8 |
| 20260507115017 | 49 | 293 | 6.1 | 9.6 | 0.03 | 0.05 | 0.05 | 93 | 1014.8 |
| 20260507114017 | 49 | 293 | 7.0 | 10.4 | 0.02 | 0.04 | 0.04 | 92 | 1014.8 |
| 20260507113037 | 50 | 293 | 5.2 | 9.6 | 0.03 | 0.04 | 0.04 | 93 | 1014.7 |
| 20260507112018 | 50 | 293 | 5.2 | 10.4 | 0.03 | 0.04 | 0.04 | 93 | 1014.7 |
| 20260507111017 | 50 | 315 | 3.5 | 7.8 | 0.03 | 0.04 | 0.04 | 93 | 1014.6 |
| 20260507110017 | 50 | 293 | 5.2 | 7.8 | 0.02 | 0.03 | 0.03 | 92 | 1014.6 |
| 20260507105017 | 50 | 293 | 6.1 | 10.4 | 0.01 | 0.02 | 0.02 | 93 | 1014.6 |
| 20260507104017 | 50 | 293 | 4.3 | 8.7 | 0.01 | 0.02 | 0.02 | 93 | 1014.4 |
| 20260507103037 | 50 | 293 | 5.2 | 11.3 | 0.00 | 0.01 | 0.01 | 92 | 1014.4 |
| 20260507102017 | 50 | 293 | 5.2 | 8.7 | 0.00 | 0.01 | 0.01 | 92 | 1014.3 |
| 20260507101018 | 50 | 270 | 4.3 | 10.4 | 0.00 | 0.01 | 0.01 | 92 | 1014.2 |
| 20260507100017 | 50 | 293 | 5.2 | 8.7 | 0.00 | 0.01 | 0.01 | 92 | 1014.0 |
| 20260507095037 | 50 | 293 | 4.3 | 9.6 | 0.00 | 0.01 | 0.01 | 92 | 1013.9 |
| 20260507094017 | 50 | 270 | 5.2 | 9.6 | 0.00 | 0.01 | 0.01 | 92 | 1013.7 |
| 20260507093017 | 50 | 293 | 5.2 | 7.8 | 0.00 | 0.01 | 0.01 | 91 | 1013.6 |
| 20260507092017 | 50 | 270 | 6.1 | 9.6 | 0.00 | 0.01 | 0.01 | 91 | 1013.4 |
| 20260507091057 | 50 | 270 | 6.1 | 9.6 | 0.00 | 0.01 | 0.01 | 92 | 1013.3 |
| 20260507090017 | 50 | 293 | 5.2 | 10.4 | 0.00 | 0.01 | 0.01 | 92 | 1013.3 |
| 20260507085017 | 49 | 293 | 4.3 | 8.7 | 0.00 | 0.01 | 0.01 | 92 | 1013.2 |
| 20260507084017 | 49 | 270 | 5.2 | 9.6 | 0.00 | 0.01 | 0.01 | 92 | 1013.1 |
| 20260507083016 | 49 | 293 | 5.2 | 9.6 | 0.00 | 0.01 | 0.01 | 92 | 1013.1 |
| 20260507082016 | 49 | 293 | 6.1 | 9.6 | 0.00 | 0.01 | 0.01 | 91 | 1013.0 |
| 20260507081017 | 49 | 293 | 6.1 | 9.6 | 0.00 | 0.01 | 0.01 | 92 | 1012.9 |
| 20260507080017 | 49 | 293 | 5.2 | 8.7 | 0.01 | 0.01 | 0.01 | 92 | 1012.6 |
| 20260507075036 | 49 | 293 | 4.3 | 8.7 | 0.01 | 0.01 | 0.01 | 92 | 1012.6 |
| 20260507074016 | 49 | 293 | 3.5 | 7.8 | 0.01 | 0.01 | 0.01 | 92 | 1012.4 |
| 20260507073037 | 50 | 270 | 3.5 | 7.0 | 0.01 | 0.01 | 0.01 | 92 | 1012.4 |
| 20260507072016 | 49 | 293 | 4.3 | 8.7 | 0.01 | 0.01 | 0.01 | 92 | 1012.2 |
| 20260507071057 | 49 | 293 | 3.5 | 7.8 | 0.01 | 0.01 | 0.01 | 91 | 1012.2 |
| 20260507070016 | 49 | 270 | 3.5 | 6.1 | 0.00 | 0.00 | 0.00 | 92 | 1012.2 |
| 20260507065036 | 49 | 293 | 2.6 | 6.1 | 0.00 | 0.00 | 0.00 | 91 | 1012.2 |
| 20260507064016 | 49 | 293 | 3.5 | 7.0 | 0.00 | 0.00 | 0.00 | 89 | 1011.9 |
| 20260507063016 | 49 | 293 | 2.6 | 5.2 | 0.00 | 0.00 | 0.00 | 89 | 1011.8 |
| 20260507062017 | 49 | 293 | 3.5 | 6.1 | 0.00 | 0.00 | 0.00 | 89 | 1011.7 |
| 20260507061017 | 49 | 293 | 2.6 | 6.1 | 0.00 | 0.00 | 0.00 | 89 | 1011.6 |
| 20260507060017 | 49 | 270 | 4.3 | 7.8 | 0.00 | 0.00 | 0.00 | 89 | 1011.5 |
| 20260507055016 | 49 | 293 | 4.3 | 7.8 | 0.00 | 0.00 | 0.00 | 89 | 1011.4 |
| 20260507054017 | 49 | 293 | 3.5 | 7.8 | 0.00 | 0.00 | 0.00 | 89 | 1011.3 |
| 20260507053016 | 49 | 293 | 5.2 | 8.7 | 0.00 | 0.00 | 0.00 | 90 | 1011.1 |
| 20260507052016 | 49 | 293 | 4.3 | 7.8 | 0.00 | 0.00 | 0.00 | 90 | 1011.1 |
| 20260507051016 | 49 | 293 | 4.3 | 7.0 | 0.00 | 0.00 | 0.00 | 90 | 1011.0 |
| 20260507050016 | 49 | 293 | 2.6 | 6.1 | 0.00 | 0.00 | 0.00 | 90 | 1010.8 |
| 20260507045016 | 49 | 293 | 2.6 | 6.1 | 0.00 | 0.00 | 0.00 | 90 | 1010.9 |
| 20260507044016 | 49 | 270 | 2.6 | 6.1 | 0.00 | 0.00 | 0.00 | 91 | 1010.6 |
| 20260507043016 | 49 | 293 | 2.6 | 4.3 | 0.00 | 0.01 | 0.00 | 91 | 1010.6 |
| 20260507042016 | 48 | 293 | 2.6 | 6.1 | 0.00 | 0.02 | 0.00 | 91 | 1010.6 |
| 20260507041016 | 48 | 293 | 2.6 | 5.2 | 0.00 | 0.02 | 0.00 | 91 | 1010.6 |
| 20260507040016 | 48 | 293 | 2.6 | 5.2 | 0.00 | 0.02 | 0.00 | 91 | 1010.6 |
| 20260507035016 | 48 | 293 | 2.6 | 6.1 | 0.00 | 0.02 | 0.00 | 91 | 1010.5 |
| 20260507034036 | 49 | 293 | 3.5 | 6.1 | 0.00 | 0.05 | 0.00 | 90 | 1010.5 |
| 20260507033016 | 49 | 293 | 1.7 | 3.5 | 0.00 | 0.05 | 0.00 | 90 | 1010.5 |
| 20260507032056 | 49 | 315 | 2.6 | 6.1 | 0.00 | 0.06 | 0.00 | 90 | 1010.5 |
| 20260507031016 | 49 | 293 | 3.5 | 7.0 | 0.00 | 0.06 | 0.00 | 90 | 1010.5 |
| 20260507030016 | 49 | 293 | 2.6 | 4.3 | 0.00 | 0.07 | 0.00 | 90 | 1010.5 |
| 20260507025016 | 49 | 293 | 3.5 | 7.8 | 0.00 | 0.07 | 0.00 | 90 | 1010.4 |
| 20260507024016 | 49 | 293 | 4.3 | 8.7 | 0.00 | 0.08 | 0.00 | 90 | 1010.3 |
| 20260507023016 | 49 | 315 | 3.5 | 7.0 | 0.00 | 0.09 | 0.00 | 89 | 1010.4 |
| 20260507022056 | 49 | 315 | 2.6 | 7.0 | 0.00 | 0.09 | 0.00 | 89 | 1010.4 |
| 20260507021016 | 49 | 293 | 4.3 | 7.0 | 0.00 | 0.09 | 0.00 | 89 | 1010.2 |
| 20260507020016 | 49 | 315 | 4.3 | 7.0 | 0.00 | 0.10 | 0.00 | 90 | 1010.3 |
| 20260507015016 | 49 | 270 | 4.3 | 8.7 | 0.00 | 0.11 | 0.00 | 90 | 1010.2 |
| 20260507014016 | 49 | 293 | 3.5 | 7.0 | 0.00 | 0.11 | 0.00 | 90 | 1010.2 |
| 20260507013016 | 49 | 293 | 2.6 | 5.2 | 0.00 | 0.12 | 0.00 | 90 | 1010.0 |
| 20260507012016 | 49 | 270 | 3.5 | 8.7 | 0.00 | 0.12 | 0.00 | 90 | 1009.8 |
| 20260507011036 | 49 | 315 | 4.3 | 7.8 | 0.00 | 0.12 | 0.00 | 90 | 1009.8 |
| 20260507010016 | 49 | 293 | 5.2 | 10.4 | 0.00 | 0.12 | 0.00 | 90 | 1009.8 |
| 20260507005016 | 49 | 293 | 4.3 | 7.8 | 0.00 | 0.12 | 0.00 | 90 | 1009.8 |
| 20260507004015 | 49 | 293 | 5.2 | 9.6 | 0.00 | 0.12 | 0.00 | 90 | 1009.7 |
| 20260507003016 | 49 | 293 | 5.2 | 9.6 | 0.00 | 0.12 | 0.00 | 90 | 1009.7 |
| 20260507002015 | 49 | 293 | 4.3 | 8.7 | 0.00 | 0.12 | 0.00 | 90 | 1009.7 |
| 20260507001015 | 50 | 315 | 3.5 | 8.7 | 0.00 | 0.12 | 0.00 | 90 | 1009.6 |
| 20260507000036 | 50 | 293 | 3.5 | 7.0 | 0.00 | 0.12 | 0.00 | 90 | 1009.6 |
| 20260506235035 | 50 | 293 | 3.5 | 7.0 | 0.00 | 0.13 | 0.00 | 90 | 1009.7 |
| 20260506234016 | 50 | 315 | 4.3 | 8.7 | 0.00 | 0.13 | 0.00 | 90 | 1009.5 |
| 20260506233015 | 50 | 315 | 4.3 | 9.6 | 0.00 | 0.13 | 0.00 | 90 | 1009.5 |
| 20260506232016 | 50 | 293 | 4.3 | 7.8 | 0.00 | 0.13 | 0.00 | 90 | 1009.4 |
| 20260506231015 | 50 | 293 | 2.6 | 7.8 | 0.00 | 0.13 | 0.00 | 91 | 1009.3 |
| 20260506230036 | 50 | 293 | 4.3 | 7.8 | 0.00 | 0.13 | 0.00 | 91 | 1009.1 |
| 20260506225015 | 50 | 293 | 3.5 | 6.1 | 0.00 | 0.13 | 0.00 | 91 | 1009.1 |
| 20260506224055 | 50 | 293 | 4.3 | 8.7 | 0.00 | 0.14 | 0.00 | 91 | 1009.1 |
| 20260506223037 | 50 | 293 | 4.3 | 8.7 | 0.00 | 0.14 | 0.00 | 90 | 1008.9 |
| 20260506222017 | 51 | 293 | 4.3 | 7.8 | 0.00 | 0.16 | 0.00 | 89 | 1009.0 |
| 20260506221018 | 51 | 315 | 3.5 | 7.8 | 0.00 | 0.17 | 0.00 | 89 | 1009.1 |
| 20260506220017 | 51 | 293 | 3.5 | 7.8 | 0.00 | 0.18 | 0.18 | 89 | 1008.9 |
| 20260506215016 | 51 | 293 | 3.5 | 8.7 | 0.00 | 0.20 | 0.18 | 88 | 1008.8 |
| 20260506214016 | 51 | 293 | 3.5 | 7.0 | 0.00 | 0.21 | 0.18 | 88 | 1008.8 |
| 20260506213016 | 51 | 293 | 4.3 | 8.7 | 0.00 | 0.22 | 0.18 | 88 | 1008.6 |
| 20260506212016 | 51 | 315 | 3.5 | 7.0 | 0.00 | 0.24 | 0.18 | 89 | 1008.6 |
| 20260506211036 | 51 | 293 | 5.2 | 8.7 | 0.00 | 0.25 | 0.18 | 89 | 1008.6 |
| 20260506210016 | 51 | 293 | 4.3 | 7.0 | 0.00 | 0.28 | 0.18 | 89 | 1008.6 |
| 20260506205016 | 51 | 270 | 3.5 | 6.1 | 0.00 | 0.30 | 0.18 | 89 | 1008.7 |
| 20260506204016 | 51 | 293 | 2.6 | 6.1 | 0.00 | 0.33 | 0.18 | 89 | 1008.7 |
| 20260506203136 | 51 | 293 | 1.7 | 3.5 | 0.00 | 0.36 | 0.18 | 89 | 1008.5 |
| 20260506202016 | 51 | 315 | 1.7 | 4.3 | 0.00 | 0.40 | 0.18 | 89 | 1008.6 |
| 20260506201036 | 51 | 293 | 3.5 | 7.0 | 0.00 | 0.44 | 0.18 | 89 | 1008.3 |
| 20260506200016 | 51 | 293 | 5.2 | 8.7 | 0.00 | 0.46 | 0.18 | 89 | 1008.2 |
| 20260506195036 | 52 | 293 | 4.3 | 8.7 | 0.00 | 0.47 | 0.18 | 89 | 1008.3 |
| 20260506194016 | 52 | 293 | 6.1 | 11.3 | 0.00 | 0.50 | 0.18 | 89 | 1008.1 |
| 20260506193016 | 52 | 293 | 6.1 | 11.3 | 0.00 | 0.54 | 0.18 | 89 | 1008.0 |
| 20260506192016 | 52 | 293 | 5.2 | 9.6 | 0.00 | 0.60 | 0.18 | 89 | 1007.9 |
| 20260506191016 | 52 | 293 | 7.0 | 12.2 | 0.00 | 0.72 | 0.18 | 89 | 1007.7 |
| 20260506190036 | 52 | 293 | 7.0 | 13.0 | 0.00 | 0.80 | 0.18 | 88 | 1007.5 |
| 20260506185016 | 53 | 293 | 5.2 | 8.7 | 0.00 | 0.88 | 0.18 | 88 | 1007.2 |
| 20260506184016 | 53 | 293 | 6.1 | 10.4 | 0.00 | 0.94 | 0.18 | 88 | 1007.2 |
| 20260506183036 | 53 | 293 | 6.1 | 8.7 | 0.00 | 0.98 | 0.18 | 87 | 1007.0 |
| 20260506182036 | 54 | 293 | 6.1 | 11.3 | 0.00 | 1.02 | 0.18 | 88 | 1006.9 |
| 20260506181016 | 54 | 293 | 5.2 | 10.4 | 0.00 | 1.04 | 0.18 | 88 | 1007.0 |
| 20260506180016 | 54 | 293 | 6.1 | 10.4 | 0.00 | 1.04 | 0.18 | 87 | 1006.8 |
| 20260506175017 | 55 | 293 | 6.1 | 9.6 | 0.00 | 1.04 | 0.18 | 86 | 1006.8 |
| 20260506174016 | 55 | 293 | 5.2 | 9.6 | 0.00 | 1.04 | 0.18 | 86 | 1006.7 |
| 20260506173016 | 55 | 293 | 6.1 | 12.2 | 0.00 | 1.04 | 0.18 | 85 | 1006.4 |
| 20260506172016 | 56 | 293 | 7.0 | 11.3 | 0.00 | 1.04 | 0.18 | 85 | 1006.1 |
| 20260506171036 | 56 | 293 | 7.0 | 10.4 | 0.00 | 1.04 | 0.18 | 84 | 1006.0 |
| 20260506170016 | 56 | 315 | 7.0 | 12.2 | 0.00 | 1.04 | 0.18 | 83 | 1006.1 |
| 20260506165016 | 58 | 293 | 7.0 | 13.0 | 0.00 | 1.04 | 0.18 | 82 | 1006.0 |
| 20260506164016 | 58 | 315 | 8.7 | 14.8 | 0.00 | 1.04 | 0.18 | 81 | 1006.0 |
| 20260506163015 | 60 | 293 | 8.7 | 16.5 | 0.00 | 1.04 | 0.18 | 79 | 1005.8 |
| 20260506162016 | 61 | 293 | 8.7 | 15.6 | 0.00 | 1.04 | 0.18 | 78 | 1005.7 |
| 20260506161015 | 62 | 293 | 7.8 | 13.0 | 0.00 | 1.04 | 0.18 | 76 | 1005.6 |
| 20260506160015 | 64 | 293 | 7.8 | 13.9 | 0.00 | 1.04 | 0.18 | 73 | 1005.6 |
| 20260506155035 | 65 | 270 | 3.5 | 8.7 | 0.00 | 1.04 | 0.18 | 68 | 1005.5 |
| 20260506154015 | 65 | 270 | 4.3 | 7.8 | 0.00 | 1.04 | 0.18 | 67 | 1005.4 |
| 20260506153015 | 66 | 270 | 2.6 | 5.2 | 0.00 | 1.04 | 0.18 | 65 | 1005.5 |
| 20260506152015 | 66 | 225 | 2.6 | 5.2 | 0.00 | 1.04 | 0.18 | 65 | 1005.5 |
| 20260506151016 | 67 | 203 | 3.5 | 7.0 | 0.00 | 1.04 | 0.18 | 63 | 1005.5 |
| 20260506150017 | 67 | 203 | 3.5 | 7.8 | 0.00 | 1.04 | 0.18 | 63 | 1005.5 |
| 20260506145057 | 67 | 203 | 4.3 | 7.8 | 0.00 | 1.04 | 0.18 | 63 | 1005.6 |
| 20260506144017 | 66 | 180 | 4.3 | 7.8 | 0.00 | 1.04 | 0.18 | 64 | 1005.5 |
| 20260506143037 | 66 | 203 | 3.5 | 5.2 | 0.00 | 1.04 | 0.18 | 64 | 1005.6 |
| 20260506142015 | 66 | 225 | 2.6 | 7.0 | 0.00 | 1.04 | 0.18 | 65 | 1005.6 |
| 20260506141015 | 66 | 248 | 3.5 | 7.0 | 0.00 | 1.04 | 0.18 | 65 | 1005.6 |
| 20260506140017 | 66 | 225 | 4.3 | 8.7 | 0.00 | 1.04 | 0.18 | 65 | 1005.7 |
| 20260506135017 | 66 | 270 | 3.5 | 6.1 | 0.00 | 1.04 | 0.18 | 64 | 1005.6 |
| 20260506134017 | 67 | 248 | 5.2 | 8.7 | 0.00 | 1.04 | 0.18 | 63 | 1005.7 |
| 20260506133017 | 67 | 270 | 3.5 | 9.6 | 0.00 | 1.04 | 0.18 | 67 | 1005.7 |
| 20260506132018 | 65 | 248 | 3.5 | 7.0 | 0.00 | 1.04 | 0.18 | 69 | 1005.7 |
| 20260506131017 | 65 | 203 | 3.5 | 7.8 | 0.00 | 1.04 | 0.18 | 67 | 1005.6 |
| 20260506130018 | 65 | 248 | 3.5 | 7.0 | 0.00 | 1.04 | 0.18 | 68 | 1005.6 |
| 20260506125018 | 65 | 270 | 4.3 | 7.8 | 0.00 | 1.04 | 0.18 | 67 | 1005.6 |
| 20260506124017 | 65 | 225 | 2.6 | 5.2 | 0.00 | 1.04 | 0.18 | 69 | 1005.7 |
| 20260506123017 | 66 | 225 | 3.5 | 7.8 | 0.00 | 1.04 | 0.18 | 67 | 1005.7 |